Regional Weather Roundup
Issued by NWS

Home | Current Version | Previous Version | Graphics & Text | Print | Product List | Glossary On
Versions: 1 2 3 4 5 6 7 8 9 10 11 12 13 14 15 16 17 18 19 20 21 22 23 24 25 26 27 28 29 30 31 32 33 34 35 36 37 38 39 40 41 42 43 44 45 46 47 48 49 50
054
ASUS43 KFSD 190402
RWRSD

WEATHER ROUNDUP FOR SOUTH DAKOTA
NATIONAL WEATHER SERVICE SIOUX FALLS SD
1100 PM CDT WED APR 18 2018

NOTE: "FAIR" INDICATES FEW OR NO CLOUDS BELOW 12,000 FEET WITH NO
SIGNIFICANT WEATHER AND/OR OBSTRUCTIONS TO VISIBILITY.


SDZ001>005-009-010-012>017-190500-
NORTHWEST AND NORTH CENTRAL SOUTH DAKOTA

CITY           SKY/WX    TMP DP  RH WIND       PRES   REMARKS
BUFFALO          N/A     41  30  65 E8        30.20R
FAITH            N/A     39  34  82 E7        30.28R
MOBRIDGE       CLEAR     34  27  75 NE7       30.27R WCI  28
$$

SDZ012>016-024>037-041>051-057-063-072>074-190500-
SOUTHWEST AND SOUTH CENTRAL SOUTH DAKOTA

CITY           SKY/WX    TMP DP  RH WIND       PRES   REMARKS
RAPID CTY ARPT PTCLDY    36  32  85 SE6       30.28R
PIERRE         CLEAR     32  27  81 NE8       30.28R WCI  25
CUSTER         CLEAR     31  17  56 NW5       30.26R WCI  26
ELLSWORTH AFB  PTCLDY    40  36  88 SE8       30.27R
PHILIP         CLEAR     36  34  92 CALM      30.29R
PINE RIDGE     MOCLDY    38  35  89 NE3       30.28R
SPEARFISH      CLOUDY    39  27  60 S9        30.27R
WINNER         FAIR      36  30  79 CALM      30.30R
$$

SDZ004>011-016>023-039-040-190500-
NORTHEAST SOUTH DAKOTA

CITY           SKY/WX    TMP DP  RH WIND       PRES   REMARKS
ABERDEEN       PTCLDY    34  30  85 N5        30.29R WCI  30
WATERTOWN      CLOUDY    35  30  82 NW8       30.24R WCI  29
BROOKINGS      CLOUDY    34  28  79 NW8       30.24R WCI  27
SISSETON         N/A     35  30  82 NW9       30.26R WCI  28
$$

SDZ017-020-022-023-036>040-048>070-190500-
SOUTHEAST SOUTH DAKOTA

CITY           SKY/WX    TMP DP  RH WIND       PRES   REMARKS
SIOUX FALLS    CLOUDY    34  29  82 NW12      30.23R WCI  25
HURON          PTCLDY    36  30  79 NE6       30.27R
CHAMBERLAIN    CLEAR     39  31  75 N8        30.29R
MITCHELL       CLEAR     35  31  85 NW5       30.28R
YANKTON        CLEAR     33  32  96 NW8       30.26R WCI  26
$$

ABBREVIATIONS USED IN REMARKS
   TC - TEMPERATURE IN CELSIUS
  WCI - WIND CHILL INDEX
   HX - HEAT INDEX
  VSB - VISIBILITY





USA.gov is the U.S. government's official web portal to all federal, state and local government web resources and services.